Total_Precipitation_Accumulation
2.43 2.07 3.42 3.54 3.19 2.85 2.64 2.65 2.77 2.76 2.85 2.83 2.70 2.45 2.28 2.19 2.23 2.27 2.09 1.84 1.75 1.78 2.04 2.19 2.10 2.13 1.95 1.92 1.99 2.13 2.21 2.19 2.28 2.04 1.82 1.73 1.65 1.76 1.93 2.05 2.31 2.59 2.17
1.72 1.74 3.01 3.39 3.25 2.99 2.86 2.82 2.82 2.84 2.85 2.75 2.57 2.46 2.18 1.98 2.07 2.33 2.11 2.00 1.83 1.72 1.87 2.08 2.14 2.21 2.12 2.11 2.25 2.30 2.28 2.19 2.23 2.12 2.11 2.10 1.90 1.83 1.72 1.85 2.31 2.57 2.02
1.51 1.65 2.41 3.28 3.20 2.91 2.89 2.85 2.74 2.75 2.76 2.56 2.38 2.18 2.09 1.90 1.96 2.22 2.10 2.10 1.95 1.77 1.90 2.11 2.27 2.33 2.32 2.34 2.48 2.43 2.35 2.39 2.32 2.17 2.50 2.92 2.36 2.04 1.96 1.92 2.00 2.02 1.95
1.25 1.43 1.97 2.77 2.70 2.62 2.61 2.47 2.40 2.37 2.29 2.31 2.28 2.05 1.95 1.91 2.06 2.28 2.18 2.06 1.90 1.78 1.85 2.04 2.23 2.18 2.22 2.34 2.35 2.52 2.53 2.58 2.53 2.24 2.40 2.81 2.71 2.39 2.27 2.18 2.01 1.97 2.09
1.06 1.34 2.04 2.64 2.52 2.50 2.45 2.20 2.21 2.11 2.02 2.06 2.14 2.02 2.03 1.92 1.95 2.14 2.17 2.09 2.00 1.93 1.88 2.02 2.10 2.04 2.16 2.27 2.24 2.38 2.55 2.66 2.52 2.04 1.96 2.35 2.98 2.77 2.34 2.26 2.19 2.17 2.19
1.12 1.25 1.75 2.33 2.28 2.23 2.19 2.23 2.17 2.02 2.01 1.98 1.96 1.99 2.00 1.95 1.92 1.98 2.14 2.07 2.01 2.17 2.23 2.20 2.22 2.24 2.24 2.28 2.22 2.29 2.41 2.35 2.10 2.03 2.10 2.39 2.84 2.73 2.21 2.02 2.17 2.29 2.30
1.01 1.04 1.37 2.00 2.01 1.96 2.00 2.11 2.17 2.07 2.05 1.94 1.91 2.06 2.09 2.00 1.96 2.00 2.18 2.18 2.10 2.14 2.31 2.25 2.20 2.19 2.15 2.21 2.19 2.15 2.24 2.17 1.96 2.08 2.21 2.48 2.53 2.55 2.23 2.04 2.19 2.26 2.31
1.11 1.02 1.17 1.80 1.94 1.84 1.91 1.95 2.02 2.10 2.05 1.93 1.91 1.92 1.98 2.05 1.97 2.01 2.06 2.16 2.09 2.09 2.21 2.19 2.07 2.04 1.88 1.90 1.97 1.95 2.05 1.87 1.60 1.77 2.04 2.44 2.69 2.60 2.14 1.94 1.92 2.09 2.21
1.38 1.31 1.36 1.55 1.68 1.80 1.90 1.91 2.05 2.17 2.08 1.88 1.76 1.73 1.76 1.88 1.86 1.83 1.83 1.94 1.93 1.98 2.05 2.05 2.04 2.06 1.90 1.85 1.90 1.94 1.97 1.73 1.49 1.74 1.72 2.29 2.79 2.63 2.20 1.92 1.81 1.98 2.10
1.32 1.29 1.35 1.46 1.50 1.53 1.66 1.95 2.20 2.54 2.40 1.96 1.66 1.52 1.61 1.62 1.67 1.77 1.69 1.78 1.87 2.00 2.21 2.21 2.20 2.10 2.07 1.96 1.91 1.93 1.81 1.44 1.40 1.44 1.71 2.15 2.91 2.71 2.24 1.92 1.74 1.72 1.80
1.02 1.07 1.17 1.26 1.30 1.37 1.38 1.61 2.09 2.52 2.54 2.09 1.72 1.62 1.45 1.17 1.22 1.48 1.65 1.89 2.01 2.15 2.49 2.55 2.41 2.21 2.05 1.93 1.88 1.80 1.45 1.17 1.40 1.50 1.84 2.43 2.89 2.78 2.30 1.95 1.72 1.68 1.58
0.84 0.80 0.81 0.84 0.96 1.06 1.08 1.38 1.67 1.72 1.92 1.66 1.59 1.47 1.35 1.32 1.31 1.19 1.38 1.83 2.06 2.11 2.36 2.51 2.42 2.03 1.60 1.42 1.53 1.54 1.20 1.12 1.26 1.41 1.87 2.68 3.08 2.88 2.33 1.94 1.79 1.75 1.60
0.77 0.75 0.68 0.68 0.76 0.91 1.06 1.22 1.41 1.57 1.72 1.70 1.63 1.57 1.60 1.59 1.29 1.17 1.26 1.42 1.61 1.71 1.72 1.86 1.87 1.59 1.33 1.28 1.42 1.33 1.14 1.10 1.19 1.32 1.89 2.69 3.17 2.98 2.38 1.98 1.91 1.88 1.87
0.64 0.73 0.70 0.56 0.59 0.69 0.78 0.95 1.12 1.33 1.53 1.57 1.37 1.28 1.43 1.50 1.34 1.25 1.40 1.46 1.55 1.68 1.72 1.72 1.66 1.47 1.19 1.16 1.30 1.29 1.15 1.19 1.20 1.30 1.72 2.25 2.75 2.90 2.65 2.29 2.19 2.11 2.24
0.64 0.72 0.75 0.66 0.61 0.66 0.72 0.78 0.81 1.10 1.28 1.43 1.46 1.22 1.34 1.41 1.37 1.29 1.27 1.43 1.43 1.57 1.60 1.67 1.71 1.55 1.38 1.25 1.26 1.23 1.31 1.30 1.22 1.18 1.45 1.72 2.03 2.58 2.84 2.77 2.66 2.51 2.49
0.60 0.69 0.71 0.73 0.71 0.71 0.73 0.73 0.72 0.78 0.86 0.96 0.89 0.85 1.05 1.20 1.24 1.28 1.19 1.26 1.36 1.56 1.80 1.89 1.72 1.61 1.50 1.43 1.44 1.39 1.38 1.34 1.31 1.21 1.34 1.46 1.45 1.74 2.25 2.80 3.06 2.95 2.83
0.58 0.64 0.70 0.75 0.82 0.82 0.82 0.87 0.83 0.77 0.79 0.77 0.71 0.71 0.83 0.95 1.05 1.18 1.24 1.23 1.29 1.55 1.84 2.04 1.92 1.76 1.57 1.54 1.53 1.51 1.43 1.42 1.35 1.31 1.42 1.56 1.43 1.41 1.77 2.39 3.02 3.22 3.06
0.57 0.55 0.57 0.61 0.70 0.74 0.79 0.83 0.92 0.91 0.90 0.87 0.86 0.82 0.78 0.92 1.06 1.18 1.30 1.26 1.29 1.54 1.81 2.04 2.11 2.08 1.97 1.86 1.75 1.64 1.56 1.67 1.53 1.44 1.53 1.67 1.76 1.61 1.63 1.95 2.42 2.88 3.09
0.52 0.46 0.44 0.49 0.51 0.55 0.59 0.66 0.79 0.87 0.93 1.01 1.00 0.99 0.99 1.06 1.10 1.23 1.46 1.51 1.52 1.70 1.78 1.81 1.97 2.02 2.08 2.04 1.81 1.74 1.66 1.76 1.84 1.75 1.84 1.96 2.01 1.93 1.80 1.71 1.86 2.06 2.61
0.44 0.44 0.44 0.46 0.45 0.44 0.45 0.55 0.69 0.77 0.83 1.02 1.08 1.11 1.38 1.52 1.34 1.31 1.49 1.55 1.62 1.86 1.90 1.95 2.18 2.17 2.09 2.16 1.93 1.80 1.76 1.75 1.78 1.99 2.15 2.18 2.16 1.96 1.93 1.77 1.84 1.78 2.11
0.28 0.28 0.34 0.38 0.45 0.44 0.39 0.43 0.57 0.70 0.81 0.96 1.14 1.16 1.38 1.52 1.45 1.49 1.55 1.61 1.65 1.77 1.82 1.95 2.30 2.36 2.19 2.06 2.24 2.22 2.12 1.91 1.83 1.92 2.05 2.27 2.33 2.11 2.02 2.03 1.93 1.83 1.74
0.25 0.20 0.23 0.27 0.37 0.46 0.49 0.53 0.66 0.85 0.96 1.07 1.25 1.29 1.37 1.40 1.41 1.37 1.58 1.72 1.69 1.84 1.90 2.05 2.35 2.60 2.36 2.16 2.50 2.96 2.73 2.44 2.09 1.86 1.89 1.94 2.17 2.14 1.97 1.85 1.78 1.77 1.73
0.18 0.15 0.19 0.28 0.43 0.59 0.75 0.98 1.24 1.54 1.70 1.61 1.50 1.57 1.66 1.71 1.65 1.62 1.72 1.88 1.84 1.90 2.00 2.03 2.13 2.63 2.80 2.55 2.47 3.02 2.89 2.68 2.65 2.11 1.70 1.59 1.85 2.02 2.01 1.88 1.83 1.91 1.91
0.22 0.29 0.38 0.50 0.67 0.83 1.03 1.25 1.52 1.78 1.98 2.01 2.08 2.12 2.08 2.00 1.88 1.77 1.81 1.91 1.95 2.02 1.99 1.82 1.97 2.45 2.96 3.03 2.79 2.54 2.36 2.31 2.51 2.42 1.86 1.54 1.60 1.78 1.98 1.86 1.85 1.96 2.02
0.40 0.54 0.65 0.89 1.05 1.20 1.26 1.34 1.54 1.65 1.73 1.85 2.03 2.10 2.11 2.04 1.92 1.77 1.73 1.87 1.98 2.03 2.03 2.06 2.22 2.51 2.80 3.07 3.04 2.78 2.47 2.22 1.84 2.04 2.06 1.84 1.58 1.49 1.58 1.70 1.84 1.89 1.96
0.71 0.95 1.09 1.22 1.33 1.33 1.29 1.28 1.39 1.52 1.63 1.74 1.90 1.98 1.93 1.82 1.79 1.72 1.70 1.74 1.74 1.83 1.92 2.09 2.32 2.45 2.63 2.85 2.91 2.63 2.45 2.35 2.14 1.97 1.81 1.88 1.85 1.55 1.41 1.40 1.52 1.69 1.77